Regional Weather Roundup
Issued by NWS

Home | Current Version | Previous Version | Graphics & Text | Print | Product List | Glossary On
Versions: 1 2 3 4 5 6 7 8 9 10 11 12 13 14 15 16 17 18 19 20 21 22 23 24 25 26 27
000
ASUS45 KSLC 240510
RWRUT

UTAH REGIONAL WEATHER ROUNDUP
NATIONAL WEATHER SERVICE SALT LAKE CITY UT
1100 PM MDT WED APR 23 2014

UTZ001>011-023>025-240600-

NORTHERN UTAH

CITY           SKY/WX    TMP DP  RH WIND       PRES   REMARKS
HILL AFB       CLEAR     41  21  44 E8        30.07S
LOGAN          CLEAR     38  27  64 CALM      30.07R
OGDEN          PTCLDY    42  25  50 S8        30.07R
PROVO AIRPORT  CLEAR     39  23  52 SE7       30.10R WCI  34
SALT LAKE CITY PTCLDY    42  24  49 S7        30.07S
VERNAL         CLEAR     39  12  33 CALM      30.05R
WENDOVER       PTCLDY    48  16  27 W5        30.06S
HEBER CITY     CLEAR     32  19  59 E6        30.10R WCI  26
WEST JORDAN    CLEAR     39  25  56 SW8       30.09R WCI  34

$$

UTZ012>022-026-027-240600-

SOUTHERN UTAH

CITY           SKY/WX    TMP DP  RH WIND       PRES   REMARKS
BRYCE CANYON   CLEAR     27   8  44 W5        30.11R WCI  22
CEDAR CITY     CLEAR     41  12  30 CALM      30.05R
MILFORD        CLEAR     39   8  27 W9        30.05R WCI  33
MOAB/CYNLANDS  CLEAR     43   7  22 NW7       30.01R
PRICE          CLEAR     34   7  32 N8        30.07S WCI  27
ST GEORGE      CLEAR     63  16  16 CALM      29.98R

$$

REGIONAL REPORTS     COLORADO/ARIZONA

CITY           SKY/WX    TMP DP  RH WIND       PRES   REMARKS
CRAIG, CO      CLEAR     32  15  49 SW7       30.06R WCI  26
GRAND JUNCTION CLEAR     44  11  26 W15       30.01R
RIFLE          CLEAR     43  13  29 NW7       30.03R
MONTROSE       PTCLDY    40  13  33 E8        30.04R WCI  34
CORTEZ         CLEAR     38  13  35 E5        30.04R WCI  34
PAGE, AZ       CLEAR     59   8  13 NW7       29.99R
GRAND CANYON   CLEAR     30  10  43 CALM      30.08R
KINGMAN        CLEAR     52   6  15 SE8       29.98R
FLAGSTAFF      CLEAR     34  11  38 CALM      30.08S

$$

REGIONAL REPORTS    NEVADA/IDAHO/WYOMING

CITY           SKY/WX    TMP DP  RH WIND       PRES   REMARKS
LAS VEGAS, NV  MOCLDY    71  15  11 S6        29.89R
ELY            CLEAR     32  15  49 S10       30.07R WCI  24
ELKO           MOCLDY    40  26  57 CALM      30.04S
POCATELLO, ID  CLEAR     41  27  57 S13       30.03S
BURLEY         MOCLDY    37  30  75 S6        30.01S WCI  32
EVANSTON, WY   CLEAR     27  15  61 SW10      30.08S WCI  17
ROCK SPRINGS   CLEAR     33  14  45 W12       30.05S WCI  24

$$



USA.gov is the U.S. government's official web portal to all federal, state and local government web resources and services.